Tracking 29892 objects as of 21-Nov-2024
HD Live streaming from Space Station
objects crossing your sky now

USA 390

Track USA 390 now!
10-day predictions


NORAD ID: 60173
Int'l Code: 2024-121R
Perigee: 581.9 km
Apogee: 586.5 km
Inclination: 70.0 °
Period: 96.2 minutes
Semi major axis: 6955 km
RCS: Unknown
Launch date: June 29, 2024
Source: United States (US)
Launch site: AIR FORCE WESTERN TEST RANGE (AFWTR)
Your satellite tracking list
Your tracking list is empty




NASA's NSSDC Master Catalog

Two Line Element Set (TLE):
1 60173U 24121R   24278.76084610 0.00000080  00000-0  69846-5 0    01
2 60173  69.9837 147.0423 0003358 322.0007  37.9992 14.96716972    06
Source of the keplerian elements: McCants